Location: Arborea
(39.7744°N, 8.5819°E)
Time: 22:44:20
(UTC+00:00)

Cosmos 2322 - Pass Details

Date: 04 June 2022
Orbit: 840 x 855 km, 71.0° (Epoch: 01 July)

Event Time Altitude Azimuth Distance (km) Brightness Sun altitude
Exits shadow 20:20:46 17° 166° (SSE) 2,043 5.2 -14.5°
Maximum altitude 20:24:44 39° 105° (ESE) 1,252 4.2 -15.0°
Drops below altitude 10° 20:30:01 10° 38° (NE) 2,492 6.3 -15.7°
Sets 20:32:36 0° 31° (NNE) 3,432 7.1 -16.0°
